GW0823 Weather Reports


time (UTC)temp
F
wind
direction
speed
knots
gust
knots
rain 1hr
in
rain 24hr
in
rain mn
in
humidity
%
barometer
mb
20260510130058 64 105 0.9 7.8 0.00 0.00 0.00 73 1015.0
20260510124611 60 0 0.0 0.0 0.00 0.00 0.00 83 1015.0
20260510123117 56 0 0.0 0.0 0.00 0.00 0.00 91 1014.9
20260510121607 53 0 0.0 1.7 0.00 0.00 0.00 95 1014.7
20260510120100 52 0 0.0 1.7 0.00 0.00 0.00 95 1014.3
20260510114606 51 0 0.0 1.7 0.00 0.00 0.00 96 1014.2
20260510113108 50 94 0.9 3.5 0.00 0.00 0.00 96 1013.9
20260510111629 50 92 3.5 6.1 0.00 0.00 0.00 96 1013.5
20260510110059 48 96 1.7 3.5 0.00 0.00 0.00 96 1013.5
20260510104608 48 96 1.7 3.5 0.00 0.00 0.00 95 1013.5
20260510103058 48 0 0.0 2.6 0.00 0.00 0.00 95 1013.3
20260510101559 48 95 0.9 3.5 0.00 0.00 0.00 95 1013.0
20260510100101 48 109 1.7 3.5 0.00 0.00 0.00 95 1012.8
20260510094557 48 128 1.7 2.6 0.00 0.00 0.00 94 1012.6
20260510093057 48 103 0.0 5.2 0.00 0.00 0.00 95 1012.6
20260510091604 49 114 1.7 3.5 0.00 0.00 0.00 95 1012.5
20260510090119 49 113 1.7 3.5 0.00 0.00 0.00 95 1012.3
20260510084605 49 105 1.7 5.2 0.00 0.00 0.00 94 1012.0
20260510083109 49 113 2.6 5.2 0.00 0.00 0.00 95 1012.1
20260510081600 49 94 1.7 3.5 0.00 0.00 0.00 94 1012.0
20260510074559 49 97 1.7 3.5 0.00 0.00 0.00 94 1011.8
20260510073100 49 101 1.7 3.5 0.00 0.00 0.00 94 1011.7
20260510071559 50 86 1.7 5.2 0.00 0.00 0.00 93 1011.9
20260510070108 50 109 2.6 5.2 0.00 0.00 0.00 93 1011.9
20260510064610 50 107 3.5 6.1 0.00 0.00 0.00 93 1011.9
20260510063057 50 99 2.6 3.5 0.00 0.00 0.00 92 1012.0
20260510061559 50 95 1.7 5.2 0.00 0.00 0.00 93 1011.9
20260510060058 50 100 2.6 5.2 0.00 0.00 0.00 92 1012.1
20260510054602 51 96 2.6 6.1 0.00 0.00 0.00 91 1012.1
20260510053057 51 93 2.6 6.1 0.00 0.00 0.00 91 1012.3
20260510051608 51 107 2.6 5.2 0.00 0.00 0.00 90 1012.4
20260510044609 52 96 2.6 5.2 0.00 0.00 0.00 89 1012.3
20260510043057 52 107 2.6 5.2 0.00 0.00 0.00 89 1012.4
20260510041610 52 111 2.6 5.2 0.00 0.00 0.00 89 1012.4
20260510040100 52 96 2.6 5.2 0.00 0.00 0.00 88 1012.1
20260510034604 52 101 2.6 5.2 0.00 0.00 0.00 87 1012.0
20260510033059 52 101 1.7 3.5 0.00 0.00 0.00 87 1012.0
20260510031609 53 98 1.7 5.2 0.00 0.00 0.00 86 1011.8
20260510030105 53 105 1.7 3.5 0.00 0.00 0.00 86 1011.7
20260510024557 53 96 2.6 5.2 0.00 0.00 0.00 85 1011.6
20260510023059 54 105 2.6 5.2 0.00 0.00 0.00 85 1011.5
20260510021557 54 105 2.6 3.5 0.00 0.00 0.00 84 1011.4
20260510020058 55 101 2.6 5.2 0.00 0.00 0.00 82 1011.3
20260510014559 56 101 2.6 5.2 0.00 0.00 0.00 81 1011.1
20260510013102 56 104 2.6 5.2 0.00 0.00 0.00 80 1010.9
20260510011557 57 101 1.7 3.5 0.00 0.00 0.00 78 1010.7
20260510010058 58 93 0.9 3.5 0.00 0.00 0.00 76 1010.5
20260510004601 59 103 0.9 2.6 0.00 0.00 0.00 73 1010.2
20260510003109 61 100 0.9 3.5 0.00 0.00 0.00 70 1009.9
20260510001559 63 109 0.9 3.5 0.00 0.00 0.00 67 1009.6
20260510000115 65 116 1.7 5.2 0.00 0.00 0.00 63 1009.5
20260509234628 66 117 0.9 3.5 0.00 0.00 0.00 59 1009.4
20260509233100 67 107 1.7 6.1 0.00 0.00 0.00 59 1009.4
20260509231613 67 109 1.7 9.6 0.00 0.00 0.00 58 1009.2
20260509230107 68 108 0.9 8.7 0.00 0.00 0.00 55 1009.2
20260509224611 68 107 2.6 10.4 0.00 0.00 0.00 55 1009.3
20260509223100 68 111 1.7 7.8 0.00 0.00 0.00 55 1009.6
20260509221603 69 86 4.3 8.7 0.00 0.00 0.00 54 1009.6
20260509220106 69 0 0.9 7.0 0.00 0.00 0.00 55 1009.5
20260509214557 70 109 2.6 8.7 0.00 0.00 0.00 53 1009.5
20260509213059 70 0 1.7 6.1 0.00 0.00 0.00 52 1009.5
20260509211601 68 0 0.9 4.3 0.00 0.00 0.00 58 1009.5
20260509210112 68 161 0.9 6.1 0.00 0.00 0.00 57 1009.5
20260509204610 68 327 1.7 9.6 0.00 0.00 0.00 54 1009.5
20260509203100 69 201 3.5 7.8 0.00 0.00 0.00 53 1009.3
20260509201602 70 68 3.5 10.4 0.00 0.00 0.00 53 1009.1
20260509200107 70 269 2.6 9.6 0.00 0.00 0.00 52 1009.1
20260509194559 70 243 4.3 9.6 0.00 0.00 0.00 53 1009.4
20260509193101 69 217 0.9 7.8 0.00 0.00 0.00 52 1009.5
20260509191558 70 104 4.3 10.4 0.00 0.00 0.00 50 1009.5
20260509190110 69 29 3.5 11.3 0.00 0.00 0.00 52 1009.6
20260509184605 68 69 2.6 7.0 0.00 0.00 0.00 50 1009.4
20260509183059 68 71 1.7 10.4 0.00 0.00 0.00 53 1009.4
20260509181604 68 317 5.2 12.2 0.00 0.00 0.00 55 1009.6
20260509180103 68 82 4.3 8.7 0.00 0.00 0.00 53 1009.6
20260509174558 67 225 3.5 9.6 0.00 0.00 0.00 57 1009.7
20260509173101 67 76 1.7 7.0 0.00 0.00 0.00 58 1009.7
20260509171557 66 104 2.6 9.6 0.00 0.00 0.00 60 1009.9
20260509170105 66 307 2.6 7.8 0.00 0.00 0.00 59 1010.2
20260509164558 66 104 0.0 6.1 0.00 0.00 0.00 60 1010.3
20260509163104 63 177 1.7 4.3 0.00 0.00 0.00 62 1010.2
20260509161558 63 235 1.7 4.3 0.00 0.00 0.00 61 1010.3
20260509160058 63 220 1.7 7.8 0.00 0.00 0.00 61 1010.5
20260509154608 62 86 5.2 11.3 0.00 0.00 0.00 59 1010.4
20260509153057 62 0 0.9 7.0 0.00 0.00 0.00 61 1010.4
20260509151607 62 93 1.7 6.1 0.00 0.00 0.00 60 1010.3
20260509150111 62 199 2.6 7.0 0.00 0.00 0.00 57 1010.6
20260509144601 62 228 1.7 4.3 0.00 0.00 0.00 59 1010.6
20260509143106 62 115 0.9 4.3 0.00 0.00 0.00 59 1010.8
20260509141557 62 88 2.6 8.7 0.00 0.00 0.00 61 1010.5
20260509140106 63 226 2.6 9.6 0.00 0.00 0.00 59 1010.1
20260509134558 62 219 1.7 5.2 0.00 0.00 0.00 60 1010.2
20260509133102 60 0 0.0 0.0 0.00 0.00 0.00 67 1010.1
20260509131559 59 0 0.0 0.0 0.00 0.00 0.00 68 1010.1